| time (UTC) | temp F | wind direction | speed MPH | gust MPH | rain 1hr in | rain 24hr in | rain mn in | humidity % | barometer mb |
| 20260508023528 | 52 | 335 | 3.0 | 7.0 | 0.00 | 0.10 | 0.03 | 58 | 1014.9 |
| 20260508023038 | 52 | 340 | 4.0 | 9.0 | 0.00 | 0.10 | 0.03 | 58 | 1014.7 |
| 20260508022527 | 52 | 315 | 4.0 | 9.0 | 0.00 | 0.10 | 0.03 | 57 | 1014.7 |
| 20260508022027 | 52 | 309 | 4.0 | 8.0 | 0.00 | 0.10 | 0.03 | 57 | 1014.5 |
| 20260508021532 | 52 | 315 | 4.0 | 9.0 | 0.00 | 0.10 | 0.03 | 57 | 1014.5 |
| 20260508021025 | 52 | 316 | 5.0 | 10.0 | 0.00 | 0.10 | 0.03 | 57 | 1014.5 |
| 20260508020525 | 53 | 298 | 5.0 | 10.0 | 0.00 | 0.10 | 0.03 | 57 | 1014.4 |
| 20260508020024 | 53 | 316 | 5.0 | 10.0 | 0.00 | 0.10 | 0.03 | 57 | 1014.3 |
| 20260508015523 | 53 | 304 | 5.0 | 10.0 | 0.00 | 0.10 | 0.03 | 57 | 1014.2 |
| 20260508015023 | 53 | 319 | 4.0 | 9.0 | 0.00 | 0.10 | 0.03 | 58 | 1014.1 |
| 20260508014525 | 53 | 283 | 5.0 | 10.0 | 0.00 | 0.10 | 0.03 | 57 | 1014.1 |
| 20260508014022 | 53 | 293 | 5.0 | 11.0 | 0.00 | 0.10 | 0.03 | 58 | 1014.0 |
| 20260508013524 | 53 | 288 | 6.0 | 12.0 | 0.00 | 0.10 | 0.03 | 58 | 1013.9 |
| 20260508013023 | 53 | 313 | 5.0 | 12.0 | 0.00 | 0.10 | 0.03 | 59 | 1013.8 |
| 20260508012520 | 53 | 300 | 4.0 | 12.0 | 0.00 | 0.10 | 0.03 | 59 | 1013.7 |
| 20260508012022 | 54 | 345 | 5.0 | 12.0 | 0.00 | 0.10 | 0.03 | 59 | 1013.6 |
| 20260508011521 | 54 | 288 | 6.0 | 12.0 | 0.00 | 0.10 | 0.03 | 57 | 1013.5 |
| 20260508011020 | 54 | 335 | 4.0 | 10.0 | 0.00 | 0.10 | 0.03 | 58 | 1013.4 |
| 20260508010520 | 54 | 321 | 5.0 | 11.0 | 0.00 | 0.10 | 0.03 | 58 | 1013.3 |
| 20260508010035 | 54 | 335 | 5.0 | 12.0 | 0.00 | 0.10 | 0.03 | 58 | 1013.3 |
| 20260508005520 | 54 | 331 | 6.0 | 12.0 | 0.00 | 0.10 | 0.03 | 58 | 1013.2 |
| 20260508005019 | 54 | 286 | 5.0 | 9.0 | 0.00 | 0.10 | 0.03 | 60 | 1012.9 |
| 20260508004523 | 55 | 311 | 4.0 | 9.0 | 0.00 | 0.10 | 0.03 | 60 | 1012.9 |
| 20260508004019 | 55 | 289 | 5.0 | 9.0 | 0.00 | 0.10 | 0.03 | 60 | 1012.8 |
| 20260508003521 | 55 | 324 | 5.0 | 9.0 | 0.00 | 0.10 | 0.03 | 59 | 1012.9 |
| 20260508003021 | 55 | 311 | 4.0 | 12.0 | 0.00 | 0.10 | 0.03 | 60 | 1012.9 |
| 20260508002518 | 55 | 300 | 6.0 | 12.0 | 0.00 | 0.10 | 0.03 | 59 | 1012.8 |
| 20260508002018 | 55 | 266 | 6.0 | 13.0 | 0.00 | 0.10 | 0.03 | 59 | 1012.8 |
| 20260508001526 | 55 | 291 | 5.0 | 12.0 | 0.00 | 0.10 | 0.03 | 61 | 1012.7 |
| 20260508001018 | 55 | 270 | 6.0 | 12.0 | 0.00 | 0.10 | 0.03 | 61 | 1012.7 |
| 20260508000516 | 55 | 316 | 4.0 | 10.0 | 0.00 | 0.10 | 0.03 | 65 | 1012.4 |
| 20260508000020 | 56 | 305 | 5.0 | 9.0 | 0.00 | 0.10 | 0.03 | 65 | 1012.3 |
| 20260507235516 | 56 | 290 | 4.0 | 10.0 | 0.00 | 0.10 | 0.03 | 70 | 1012.0 |
| 20260507235014 | 56 | 333 | 3.0 | 10.0 | 0.00 | 0.10 | 0.03 | 74 | 1011.9 |
| 20260507234512 | 56 | 287 | 3.0 | 7.0 | 0.00 | 0.10 | 0.03 | 80 | 1011.9 |
| 20260507234012 | 57 | 269 | 1.0 | 4.0 | 0.00 | 0.10 | 0.03 | 83 | 1011.8 |
| 20260507233512 | 58 | 337 | 1.0 | 3.0 | 0.00 | 0.10 | 0.03 | 83 | 1011.8 |
| 20260507233012 | 58 | 326 | 1.0 | 3.0 | 0.00 | 0.10 | 0.03 | 84 | 1011.7 |
| 20260507232513 | 58 | 337 | 1.0 | 5.0 | 0.00 | 0.10 | 0.03 | 83 | 1011.7 |
| 20260507232017 | 58 | 321 | 2.0 | 5.0 | 0.00 | 0.10 | 0.03 | 83 | 1011.6 |
| 20260507231512 | 58 | 243 | 1.0 | 6.0 | 0.00 | 0.10 | 0.03 | 83 | 1011.4 |
| 20260507231012 | 58 | 300 | 2.0 | 7.0 | 0.00 | 0.10 | 0.03 | 83 | 1011.3 |
| 20260507230512 | 58 | 206 | 1.0 | 7.0 | 0.00 | 0.10 | 0.03 | 82 | 1011.3 |
| 20260507230012 | 58 | 269 | 2.0 | 7.0 | 0.00 | 0.10 | 0.03 | 82 | 1011.2 |
| 20260507225511 | 59 | 108 | 3.0 | 7.0 | 0.00 | 0.10 | 0.03 | 81 | 1011.1 |
| 20260507225011 | 59 | 219 | 2.0 | 9.0 | 0.00 | 0.10 | 0.03 | 82 | 1011.2 |
| 20260507224512 | 59 | 220 | 1.0 | 9.0 | 0.00 | 0.10 | 0.03 | 82 | 1011.1 |
| 20260507224010 | 59 | 286 | 2.0 | 6.0 | 0.00 | 0.10 | 0.03 | 82 | 1011.1 |
| 20260507223510 | 59 | 231 | 2.0 | 7.0 | 0.00 | 0.10 | 0.03 | 81 | 1011.1 |
| 20260507223011 | 59 | 314 | 2.0 | 7.0 | 0.00 | 0.10 | 0.03 | 82 | 1011.0 |
| 20260507222510 | 59 | 141 | 2.0 | 8.0 | 0.00 | 0.10 | 0.03 | 81 | 1010.9 |
| 20260507222009 | 59 | 202 | 3.0 | 8.0 | 0.00 | 0.10 | 0.03 | 81 | 1011.0 |
| 20260507221515 | 59 | 140 | 2.0 | 7.0 | 0.00 | 0.10 | 0.03 | 82 | 1010.8 |
| 20260507221010 | 59 | 229 | 2.0 | 7.0 | 0.00 | 0.10 | 0.03 | 82 | 1010.8 |
| 20260507220514 | 59 | 131 | 2.0 | 7.0 | 0.00 | 0.10 | 0.03 | 82 | 1010.6 |
| 20260507220010 | 58 | 86 | 2.0 | 6.0 | 0.00 | 0.10 | 0.03 | 83 | 1010.7 |
| 20260507215510 | 58 | 304 | 1.0 | 5.0 | 0.00 | 0.10 | 0.03 | 83 | 1010.6 |
| 20260507215009 | 58 | 260 | 1.0 | 8.0 | 0.00 | 0.10 | 0.03 | 82 | 1010.6 |
| 20260507214508 | 59 | 113 | 3.0 | 8.0 | 0.00 | 0.10 | 0.03 | 81 | 1010.5 |
| 20260507214008 | 59 | 93 | 2.0 | 8.0 | 0.00 | 0.10 | 0.03 | 82 | 1010.5 |
| 20260507213509 | 59 | 140 | 2.0 | 8.0 | 0.00 | 0.10 | 0.03 | 82 | 1010.4 |
| 20260507213018 | 58 | 206 | 3.0 | 8.0 | 0.00 | 0.10 | 0.03 | 83 | 1010.5 |
| 20260507212507 | 58 | 147 | 2.0 | 7.0 | 0.00 | 0.10 | 0.03 | 83 | 1010.5 |
| 20260507212107 | 58 | 215 | 1.0 | 7.0 | 0.00 | 0.10 | 0.03 | 83 | 1010.5 |
| 20260507211508 | 58 | 250 | 1.0 | 6.0 | 0.00 | 0.10 | 0.03 | 83 | 1010.5 |
| 20260507211008 | 58 | 275 | 2.0 | 5.0 | 0.00 | 0.10 | 0.03 | 82 | 1010.6 |
| 20260507210512 | 58 | 250 | 1.0 | 4.0 | 0.00 | 0.10 | 0.03 | 83 | 1010.4 |
| 20260507210022 | 58 | 159 | 1.0 | 4.0 | 0.00 | 0.10 | 0.03 | 83 | 1010.5 |
| 20260507205507 | 58 | 215 | 1.0 | 6.0 | 0.00 | 0.10 | 0.03 | 83 | 1010.6 |
| 20260507205007 | 59 | 159 | 1.0 | 5.0 | 0.00 | 0.10 | 0.03 | 83 | 1010.4 |
| 20260507204506 | 59 | 238 | 1.0 | 8.0 | 0.00 | 0.10 | 0.03 | 81 | 1010.5 |
| 20260507204008 | 59 | 95 | 1.0 | 9.0 | 0.00 | 0.10 | 0.03 | 83 | 1010.4 |
| 20260507203506 | 59 | 304 | 3.0 | 9.0 | 0.00 | 0.10 | 0.03 | 80 | 1010.6 |
| 20260507203013 | 59 | 229 | 3.0 | 9.0 | 0.00 | 0.10 | 0.03 | 80 | 1010.5 |
| 20260507202505 | 59 | 215 | 2.0 | 6.0 | 0.00 | 0.10 | 0.03 | 83 | 1010.5 |
| 20260507202004 | 59 | 30 | 1.0 | 6.0 | 0.00 | 0.10 | 0.03 | 84 | 1010.4 |
| 20260507201513 | 58 | 44 | 1.0 | 6.0 | 0.00 | 0.10 | 0.03 | 84 | 1010.6 |
| 20260507201007 | 58 | 86 | 1.0 | 7.0 | 0.00 | 0.10 | 0.03 | 84 | 1010.7 |
| 20260507200503 | 58 | 199 | 2.0 | 7.0 | 0.00 | 0.10 | 0.03 | 83 | 1010.8 |
| 20260507200015 | 57 | 133 | 2.0 | 8.0 | 0.00 | 0.10 | 0.03 | 84 | 1010.9 |
| 20260507195504 | 57 | 147 | 2.0 | 6.0 | 0.00 | 0.10 | 0.03 | 83 | 1010.9 |
| 20260507195007 | 58 | 233 | 1.0 | 7.0 | 0.00 | 0.10 | 0.03 | 83 | 1010.8 |
| 20260507194503 | 58 | 142 | 3.0 | 7.0 | 0.00 | 0.10 | 0.03 | 82 | 1011.0 |
| 20260507194001 | 58 | 229 | 2.0 | 7.0 | 0.00 | 0.10 | 0.03 | 83 | 1011.2 |
| 20260507193503 | 58 | 244 | 2.0 | 6.0 | 0.00 | 0.10 | 0.03 | 84 | 1011.2 |
| 20260507193004 | 58 | 145 | 2.0 | 5.0 | 0.00 | 0.10 | 0.03 | 86 | 1011.4 |
| 20260507192559 | 57 | 191 | 1.0 | 5.0 | 0.00 | 0.10 | 0.03 | 86 | 1011.5 |
| 20260507192104 | 56 | 143 | 1.0 | 6.0 | 0.00 | 0.10 | 0.03 | 86 | 1011.5 |
| 20260507191608 | 56 | 245 | 2.0 | 6.0 | 0.00 | 0.10 | 0.03 | 84 | 1011.6 |
| 20260507191100 | 56 | 172 | 1.0 | 7.0 | 0.00 | 0.10 | 0.03 | 84 | 1011.5 |
| 20260507190557 | 56 | 39 | 2.0 | 7.0 | 0.00 | 0.10 | 0.03 | 86 | 1011.7 |
| 20260507190057 | 56 | 70 | 1.0 | 4.0 | 0.00 | 0.10 | 0.03 | 87 | 1011.4 |
| 20260507185556 | 55 | 101 | 1.0 | 4.0 | 0.00 | 0.10 | 0.03 | 87 | 1011.5 |
| 20260507185054 | 55 | 1 | 1.0 | 4.0 | 0.00 | 0.10 | 0.03 | 87 | 1011.8 |
| 20260507184555 | 55 | 162 | 1.0 | 4.0 | 0.00 | 0.10 | 0.03 | 89 | 1011.9 |
| 20260507184057 | 54 | 152 | 1.0 | 5.0 | 0.00 | 0.10 | 0.03 | 90 | 1011.7 |
| 20260507183552 | 54 | 131 | 1.0 | 5.0 | 0.00 | 0.10 | 0.03 | 90 | 1011.8 |
| 20260507183100 | 53 | 1 | 0.0 | 2.0 | 0.00 | 0.10 | 0.03 | 89 | 1011.8 |
| 20260507182552 | 53 | 1 | 0.0 | 3.0 | 0.00 | 0.10 | 0.03 | 90 | 1011.7 |
| 20260507182051 | 53 | 70 | 1.0 | 3.0 | 0.00 | 0.10 | 0.03 | 90 | 1011.8 |
| 20260507181552 | 52 | 311 | 0.0 | 2.0 | 0.00 | 0.10 | 0.03 | 90 | 1011.9 |
| 20260507181050 | 52 | 1 | 0.0 | 2.0 | 0.00 | 0.10 | 0.03 | 89 | 1011.9 |
| 20260507180551 | 52 | 147 | 0.0 | 2.0 | 0.00 | 0.10 | 0.03 | 89 | 1011.8 |
| 20260507180050 | 52 | 131 | 0.0 | 2.0 | 0.00 | 0.10 | 0.03 | 90 | 1011.9 |
| 20260507175555 | 52 | 155 | 0.0 | 2.0 | 0.00 | 0.10 | 0.03 | 90 | 1012.0 |
| 20260507175052 | 51 | 159 | 0.0 | 3.0 | 0.00 | 0.10 | 0.03 | 89 | 1012.0 |
| 20260507174549 | 51 | 101 | 0.0 | 3.0 | 0.00 | 0.10 | 0.03 | 89 | 1012.0 |
| 20260507174048 | 51 | 105 | 1.0 | 3.0 | 0.00 | 0.10 | 0.03 | 89 | 1012.1 |
| 20260507173550 | 51 | 124 | 1.0 | 4.0 | 0.00 | 0.10 | 0.03 | 89 | 1012.2 |
| 20260507173118 | 51 | 79 | 1.0 | 4.0 | 0.00 | 0.10 | 0.03 | 90 | 1012.5 |
| 20260507172548 | 51 | 44 | 0.0 | 5.0 | 0.00 | 0.10 | 0.03 | 90 | 1012.4 |
| 20260507172047 | 51 | 147 | 2.0 | 5.0 | 0.00 | 0.10 | 0.03 | 90 | 1012.4 |
| 20260507171549 | 50 | 123 | 1.0 | 5.0 | 0.00 | 0.10 | 0.03 | 90 | 1012.5 |
| 20260507171048 | 50 | 86 | 2.0 | 6.0 | 0.00 | 0.10 | 0.03 | 90 | 1012.5 |
| 20260507170551 | 50 | 216 | 1.0 | 7.0 | 0.00 | 0.10 | 0.03 | 90 | 1012.6 |
| 20260507170049 | 50 | 54 | 5.0 | 7.0 | 0.00 | 0.10 | 0.03 | 90 | 1012.5 |
| 20260507165546 | 50 | 109 | 1.0 | 5.0 | 0.00 | 0.10 | 0.03 | 90 | 1012.7 |
| 20260507165045 | 50 | 86 | 2.0 | 5.0 | 0.00 | 0.10 | 0.03 | 90 | 1012.6 |
| 20260507164553 | 50 | 109 | 1.0 | 6.0 | 0.00 | 0.10 | 0.03 | 90 | 1013.1 |
| 20260507164046 | 50 | 122 | 2.0 | 6.0 | 0.00 | 0.10 | 0.03 | 90 | 1013.1 |
| 20260507163546 | 49 | 100 | 3.0 | 6.0 | 0.00 | 0.10 | 0.03 | 90 | 1012.8 |
| 20260507163045 | 49 | 81 | 2.0 | 6.0 | 0.00 | 0.10 | 0.03 | 90 | 1013.1 |
| 20260507162545 | 49 | 111 | 3.0 | 6.0 | 0.00 | 0.10 | 0.03 | 90 | 1013.0 |
| 20260507162045 | 49 | 56 | 4.0 | 6.0 | 0.00 | 0.10 | 0.03 | 90 | 1013.1 |
| 20260507161553 | 49 | 95 | 3.0 | 7.0 | 0.00 | 0.10 | 0.03 | 90 | 1013.0 |
| 20260507161045 | 49 | 79 | 4.0 | 7.0 | 0.00 | 0.10 | 0.03 | 90 | 1013.2 |
| 20260507160544 | 49 | 59 | 4.0 | 7.0 | 0.00 | 0.10 | 0.03 | 90 | 1013.2 |
| 20260507160100 | 49 | 77 | 3.0 | 12.0 | 0.01 | 0.10 | 0.03 | 90 | 1013.5 |
| 20260507155543 | 49 | 70 | 4.0 | 12.0 | 0.01 | 0.10 | 0.03 | 90 | 1013.2 |
| 20260507155045 | 49 | 64 | 6.0 | 10.0 | 0.01 | 0.10 | 0.03 | 90 | 1013.1 |
| 20260507154545 | 49 | 68 | 5.0 | 11.0 | 0.01 | 0.10 | 0.03 | 90 | 1013.3 |
| 20260507154043 | 48 | 72 | 6.0 | 11.0 | 0.01 | 0.10 | 0.03 | 90 | 1013.4 |
| 20260507153542 | 48 | 61 | 4.0 | 8.0 | 0.02 | 0.10 | 0.03 | 90 | 1013.4 |
| 20260507153043 | 48 | 86 | 4.0 | 9.0 | 0.02 | 0.10 | 0.03 | 90 | 1013.4 |
| 20260507152541 | 48 | 77 | 6.0 | 10.0 | 0.02 | 0.10 | 0.03 | 90 | 1013.4 |
| 20260507152041 | 48 | 46 | 4.0 | 11.0 | 0.03 | 0.10 | 0.03 | 90 | 1013.5 |
| 20260507151543 | 48 | 65 | 5.0 | 11.0 | 0.03 | 0.10 | 0.03 | 90 | 1013.5 |
| 20260507151039 | 48 | 58 | 7.0 | 10.0 | 0.03 | 0.10 | 0.03 | 89 | 1013.4 |
| 20260507150545 | 48 | 99 | 6.0 | 9.0 | 0.03 | 0.10 | 0.03 | 90 | 1013.6 |
| 20260507150039 | 49 | 82 | 3.0 | 10.0 | 0.02 | 0.09 | 0.02 | 90 | 1013.7 |
| 20260507145539 | 48 | 103 | 5.0 | 11.0 | 0.02 | 0.09 | 0.02 | 90 | 1013.3 |
| 20260507145039 | 48 | 59 | 5.0 | 11.0 | 0.02 | 0.09 | 0.02 | 89 | 1013.2 |
| 20260507144547 | 48 | 65 | 6.0 | 10.0 | 0.02 | 0.09 | 0.02 | 88 | 1013.4 |
| 20260507144036 | 49 | 102 | 4.0 | 8.0 | 0.02 | 0.09 | 0.02 | 89 | 1013.8 |
| 20260507143535 | 49 | 113 | 3.0 | 9.0 | 0.01 | 0.08 | 0.01 | 88 | 1013.5 |
| 20260507143035 | 49 | 60 | 4.0 | 9.0 | 0.01 | 0.08 | 0.01 | 88 | 1013.1 |
| 20260507142535 | 49 | 65 | 5.0 | 9.0 | 0.01 | 0.08 | 0.01 | 88 | 1013.2 |
| 20260507142036 | 49 | 64 | 4.0 | 9.0 | 0.00 | 0.07 | 0.00 | 88 | 1013.4 |
| 20260507141534 | 49 | 86 | 5.0 | 9.0 | 0.00 | 0.07 | 0.00 | 87 | 1013.5 |
| 20260507141034 | 49 | 60 | 6.0 | 9.0 | 0.00 | 0.07 | 0.00 | 87 | 1013.5 |
| 20260507140535 | 49 | 90 | 5.0 | 9.0 | 0.00 | 0.07 | 0.00 | 87 | 1013.5 |
| 20260507140035 | 49 | 70 | 4.0 | 10.0 | 0.00 | 0.07 | 0.00 | 87 | 1013.6 |
| 20260507135532 | 49 | 70 | 6.0 | 10.0 | 0.00 | 0.10 | 0.00 | 87 | 1013.7 |
| 20260507135031 | 49 | 81 | 6.0 | 10.0 | 0.00 | 0.10 | 0.00 | 87 | 1013.7 |
| 20260507134531 | 49 | 57 | 5.0 | 10.0 | 0.00 | 0.10 | 0.00 | 87 | 1013.7 |
| 20260507134034 | 49 | 49 | 5.0 | 9.0 | 0.00 | 0.10 | 0.00 | 87 | 1013.9 |
| 20260507133530 | 50 | 64 | 6.0 | 9.0 | 0.00 | 0.10 | 0.00 | 88 | 1013.7 |
| 20260507133030 | 50 | 81 | 5.0 | 9.0 | 0.00 | 0.10 | 0.00 | 88 | 1013.7 |
| 20260507132528 | 50 | 102 | 5.0 | 9.0 | 0.00 | 0.10 | 0.00 | 88 | 1013.6 |
| 20260507132028 | 50 | 77 | 5.0 | 9.0 | 0.00 | 0.10 | 0.00 | 88 | 1013.6 |
| 20260507131530 | 50 | 57 | 5.0 | 9.0 | 0.00 | 0.10 | 0.00 | 88 | 1013.7 |
| 20260507131028 | 50 | 52 | 5.0 | 8.0 | 0.00 | 0.10 | 0.00 | 88 | 1013.6 |
| 20260507130528 | 50 | 47 | 5.0 | 10.0 | 0.00 | 0.10 | 0.00 | 88 | 1013.7 |
| 20260507130032 | 50 | 33 | 6.0 | 10.0 | 0.00 | 0.10 | 0.00 | 88 | 1013.6 |
| 20260507125526 | 50 | 49 | 4.0 | 8.0 | 0.00 | 0.12 | 0.00 | 89 | 1013.6 |
| 20260507125028 | 50 | 77 | 5.0 | 8.0 | 0.00 | 0.12 | 0.00 | 89 | 1013.6 |
| 20260507124525 | 50 | 65 | 4.0 | 8.0 | 0.00 | 0.12 | 0.00 | 89 | 1013.5 |
| 20260507124024 | 50 | 49 | 5.0 | 8.0 | 0.00 | 0.12 | 0.00 | 89 | 1013.4 |
| 20260507123523 | 50 | 74 | 5.0 | 9.0 | 0.00 | 0.12 | 0.00 | 89 | 1013.5 |
| 20260507123032 | 50 | 63 | 5.0 | 9.0 | 0.00 | 0.12 | 0.00 | 89 | 1013.4 |
| 20260507122522 | 50 | 70 | 5.0 | 10.0 | 0.00 | 0.12 | 0.00 | 89 | 1013.4 |
| 20260507122024 | 50 | 53 | 6.0 | 10.0 | 0.00 | 0.12 | 0.00 | 89 | 1013.4 |
| 20260507121522 | 50 | 32 | 4.0 | 8.0 | 0.00 | 0.12 | 0.00 | 89 | 1013.4 |
| 20260507121021 | 50 | 68 | 5.0 | 9.0 | 0.00 | 0.12 | 0.00 | 88 | 1013.2 |
| 20260507120521 | 50 | 52 | 5.0 | 9.0 | 0.00 | 0.12 | 0.00 | 89 | 1013.5 |
| 20260507120020 | 50 | 42 | 5.0 | 8.0 | 0.00 | 0.12 | 0.00 | 89 | 1013.4 |
| 20260507115520 | 50 | 50 | 4.0 | 8.0 | 0.00 | 0.13 | 0.00 | 89 | 1013.3 |
| 20260507115019 | 50 | 75 | 5.0 | 9.0 | 0.00 | 0.13 | 0.00 | 89 | 1013.3 |
| 20260507114519 | 50 | 58 | 5.0 | 9.0 | 0.00 | 0.13 | 0.00 | 89 | 1013.0 |
| 20260507114018 | 50 | 65 | 5.0 | 9.0 | 0.00 | 0.13 | 0.00 | 89 | 1013.1 |
| 20260507113519 | 50 | 26 | 6.0 | 10.0 | 0.00 | 0.13 | 0.00 | 89 | 1013.2 |
| 20260507113025 | 50 | 60 | 6.0 | 11.0 | 0.00 | 0.13 | 0.00 | 89 | 1013.3 |
| 20260507112517 | 50 | 20 | 5.0 | 11.0 | 0.00 | 0.13 | 0.00 | 89 | 1013.2 |
| 20260507112017 | 50 | 27 | 7.0 | 11.0 | 0.00 | 0.13 | 0.00 | 90 | 1013.1 |
| 20260507111514 | 50 | 56 | 7.0 | 11.0 | 0.00 | 0.13 | 0.00 | 90 | 1013.0 |
| 20260507111013 | 51 | 32 | 6.0 | 9.0 | 0.00 | 0.13 | 0.00 | 91 | 1012.9 |
| 20260507110512 | 51 | 54 | 4.0 | 8.0 | 0.00 | 0.13 | 0.00 | 91 | 1013.0 |
| 20260507110013 | 51 | 58 | 5.0 | 8.0 | 0.00 | 0.13 | 0.00 | 91 | 1012.9 |
| 20260507105511 | 51 | 49 | 4.0 | 10.0 | 0.00 | 0.13 | 0.00 | 91 | 1012.8 |
| 20260507105010 | 51 | 44 | 4.0 | 10.0 | 0.00 | 0.13 | 0.00 | 91 | 1012.7 |
| 20260507104511 | 51 | 58 | 5.0 | 9.0 | 0.00 | 0.13 | 0.00 | 91 | 1012.4 |
| 20260507104008 | 51 | 33 | 4.0 | 11.0 | 0.00 | 0.13 | 0.00 | 91 | 1012.4 |
| 20260507103507 | 51 | 53 | 5.0 | 11.0 | 0.00 | 0.13 | 0.00 | 91 | 1012.3 |
| 20260507103006 | 51 | 70 | 5.0 | 11.0 | 0.00 | 0.13 | 0.00 | 90 | 1012.4 |
| 20260507102504 | 51 | 70 | 6.0 | 11.0 | 0.00 | 0.13 | 0.00 | 90 | 1012.3 |
| 20260507102006 | 52 | 131 | 3.0 | 8.0 | 0.00 | 0.13 | 0.00 | 90 | 1012.3 |
| 20260507101502 | 53 | 140 | 3.0 | 8.0 | 0.00 | 0.13 | 0.00 | 91 | 1012.3 |
| 20260507101002 | 53 | 72 | 3.0 | 6.0 | 0.00 | 0.13 | 0.00 | 91 | 1012.2 |
| 20260507100600 | 53 | 65 | 3.0 | 7.0 | 0.00 | 0.13 | 0.00 | 91 | 1012.2 |
| 20260507100058 | 53 | 64 | 4.0 | 8.0 | 0.00 | 0.13 | 0.00 | 90 | 1012.3 |
| 20260507095558 | 54 | 80 | 4.0 | 8.0 | 0.00 | 0.13 | 0.00 | 90 | 1012.1 |
| 20260507095056 | 54 | 65 | 3.0 | 7.0 | 0.00 | 0.13 | 0.00 | 90 | 1012.3 |
| 20260507094555 | 54 | 58 | 5.0 | 7.0 | 0.00 | 0.13 | 0.00 | 89 | 1012.3 |
| 20260507094053 | 55 | 60 | 4.0 | 7.0 | 0.00 | 0.13 | 0.00 | 88 | 1012.3 |
| 20260507093553 | 55 | 63 | 1.0 | 8.0 | 0.00 | 0.13 | 0.00 | 87 | 1012.4 |
| 20260507093056 | 55 | 51 | 3.0 | 8.0 | 0.00 | 0.13 | 0.00 | 87 | 1012.3 |
| 20260507092552 | 55 | 32 | 3.0 | 6.0 | 0.00 | 0.13 | 0.00 | 87 | 1012.2 |
| 20260507092049 | 56 | 1 | 3.0 | 5.0 | 0.00 | 0.13 | 0.00 | 87 | 1012.3 |
| 20260507091550 | 56 | 314 | 2.0 | 3.0 | 0.00 | 0.13 | 0.00 | 86 | 1011.9 |
| 20260507091049 | 56 | 1 | 1.0 | 3.0 | 0.00 | 0.13 | 0.00 | 87 | 1012.0 |
| 20260507090549 | 56 | 304 | 1.0 | 4.0 | 0.00 | 0.13 | 0.00 | 87 | 1012.2 |
| 20260507090048 | 56 | 159 | 0.0 | 4.0 | 0.00 | 0.13 | 0.00 | 87 | 1012.2 |
| 20260507085548 | 56 | 19 | 1.0 | 3.0 | 0.00 | 0.13 | 0.00 | 87 | 1012.4 |
| 20260507085048 | 56 | 304 | 0.0 | 3.0 | 0.00 | 0.13 | 0.00 | 87 | 1012.4 |
| 20260507084547 | 56 | 44 | 1.0 | 3.0 | 0.00 | 0.13 | 0.00 | 87 | 1012.6 |
| 20260507084046 | 56 | 242 | 0.0 | 2.0 | 0.00 | 0.13 | 0.00 | 87 | 1012.6 |
| 20260507083545 | 56 | 304 | 0.0 | 2.0 | 0.00 | 0.13 | 0.00 | 87 | 1012.4 |
| 20260507083047 | 56 | 131 | 0.0 | 3.0 | 0.00 | 0.13 | 0.00 | 86 | 1012.1 |
| 20260507082545 | 57 | 172 | 0.0 | 3.0 | 0.00 | 0.13 | 0.00 | 86 | 1012.0 |
| 20260507082045 | 57 | 260 | 1.0 | 3.0 | 0.00 | 0.13 | 0.00 | 86 | 1011.7 |
| 20260507081544 | 57 | 44 | 0.0 | 2.0 | 0.00 | 0.13 | 0.00 | 86 | 1011.8 |
| 20260507081043 | 57 | 172 | 0.0 | 3.0 | 0.00 | 0.13 | 0.00 | 86 | 1011.9 |
| 20260507080545 | 57 | 11 | 1.0 | 4.0 | 0.00 | 0.13 | 0.00 | 86 | 1012.0 |
| 20260507080044 | 57 | 216 | 1.0 | 4.0 | 0.00 | 0.13 | 0.00 | 86 | 1012.1 |
| 20260507075547 | 57 | 283 | 1.0 | 4.0 | 0.00 | 0.13 | 0.00 | 86 | 1012.1 |
| 20260507075043 | 57 | 304 | 2.0 | 6.0 | 0.00 | 0.13 | 0.00 | 86 | 1012.0 |
| 20260507074545 | 57 | 331 | 1.0 | 7.0 | 0.00 | 0.13 | 0.00 | 86 | 1012.0 |
| 20260507074043 | 57 | 282 | 2.0 | 7.0 | 0.00 | 0.13 | 0.00 | 87 | 1012.1 |
| 20260507073541 | 57 | 293 | 3.0 | 5.0 | 0.00 | 0.13 | 0.00 | 87 | 1011.9 |
| 20260507073041 | 57 | 319 | 2.0 | 6.0 | 0.00 | 0.13 | 0.00 | 87 | 1011.9 |
| 20260507072540 | 57 | 312 | 1.0 | 8.0 | 0.00 | 0.13 | 0.00 | 87 | 1012.1 |
| 20260507072040 | 57 | 314 | 1.0 | 8.0 | 0.00 | 0.13 | 0.00 | 87 | 1011.9 |
| 20260507071539 | 57 | 278 | 2.0 | 6.0 | 0.00 | 0.13 | 0.00 | 88 | 1012.1 |
| 20260507071040 | 57 | 321 | 3.0 | 8.0 | 0.00 | 0.13 | 0.00 | 88 | 1012.1 |
| 20260507070538 | 57 | 326 | 4.0 | 8.0 | 0.00 | 0.13 | 0.00 | 88 | 1011.9 |
| 20260507070038 | 57 | 311 | 1.0 | 3.0 | 0.00 | 0.13 | 0.00 | 89 | 1011.8 |
| 20260507065539 | 57 | 138 | 1.0 | 4.0 | 0.00 | 0.13 | 0.00 | 88 | 1011.5 |
| 20260507065035 | 57 | 172 | 0.0 | 5.0 | 0.00 | 0.13 | 0.00 | 88 | 1011.5 |
| 20260507064537 | 57 | 242 | 1.0 | 5.0 | 0.00 | 0.13 | 0.00 | 88 | 1011.8 |
| 20260507064035 | 57 | 233 | 1.0 | 5.0 | 0.00 | 0.13 | 0.00 | 88 | 1011.7 |
| 20260507063534 | 57 | 237 | 1.0 | 5.0 | 0.00 | 0.13 | 0.00 | 88 | 1011.8 |
| 20260507063034 | 57 | 304 | 0.0 | 11.0 | 0.00 | 0.13 | 0.00 | 88 | 1011.5 |
| 20260507062535 | 57 | 202 | 2.0 | 11.0 | 0.00 | 0.13 | 0.00 | 88 | 1011.6 |
| 20260507062033 | 57 | 61 | 2.0 | 10.0 | 0.00 | 0.13 | 0.00 | 88 | 1011.5 |
| 20260507061533 | 57 | 238 | 3.0 | 10.0 | 0.00 | 0.13 | 0.00 | 88 | 1011.7 |
| 20260507061032 | 58 | 20 | 3.0 | 9.0 | 0.00 | 0.13 | 0.00 | 89 | 1012.0 |
| 20260507060532 | 58 | 296 | 3.0 | 9.0 | 0.00 | 0.13 | 0.00 | 89 | 1012.1 |
| 20260507060037 | 58 | 268 | 3.0 | 10.0 | 0.00 | 0.13 | 0.00 | 89 | 1011.9 |
| 20260507055530 | 58 | 270 | 4.0 | 13.0 | 0.00 | 0.13 | 0.00 | 89 | 1012.2 |
| 20260507055028 | 58 | 312 | 3.0 | 13.0 | 0.00 | 0.13 | 0.00 | 89 | 1012.2 |
| 20260507054528 | 58 | 318 | 6.0 | 12.0 | 0.00 | 0.13 | 0.00 | 90 | 1012.4 |
| 20260507054029 | 58 | 288 | 5.0 | 12.0 | 0.00 | 0.13 | 0.00 | 90 | 1012.3 |
| 20260507053529 | 58 | 296 | 4.0 | 12.0 | 0.00 | 0.13 | 0.00 | 91 | 1012.3 |
| 20260507053025 | 59 | 233 | 5.0 | 11.0 | 0.00 | 0.13 | 0.00 | 91 | 1012.3 |
| 20260507052524 | 59 | 266 | 5.0 | 15.0 | 0.00 | 0.13 | 0.00 | 91 | 1012.2 |
| 20260507052023 | 59 | 302 | 6.0 | 15.0 | 0.00 | 0.13 | 0.00 | 91 | 1012.2 |
| 20260507051522 | 60 | 289 | 4.0 | 12.0 | 0.00 | 0.13 | 0.00 | 92 | 1012.2 |
| 20260507051020 | 60 | 318 | 2.0 | 5.0 | 0.00 | 0.13 | 0.00 | 92 | 1012.3 |
| 20260507050520 | 60 | 295 | 2.0 | 6.0 | 0.00 | 0.13 | 0.00 | 92 | 1011.9 |
| 20260507050020 | 60 | 301 | 2.0 | 5.0 | 0.00 | 0.13 | 0.00 | 92 | 1011.8 |
| 20260507045521 | 60 | 291 | 2.0 | 5.0 | 0.00 | 0.13 | 0.00 | 92 | 1011.7 |
| 20260507045018 | 60 | 278 | 2.0 | 5.0 | 0.00 | 0.13 | 0.00 | 92 | 1011.5 |
| 20260507044519 | 60 | 307 | 1.0 | 5.0 | 0.01 | 0.13 | 0.00 | 92 | 1011.2 |
| 20260507044018 | 60 | 304 | 0.0 | 3.0 | 0.01 | 0.13 | 0.00 | 92 | 1010.7 |
| 20260507043519 | 60 | 131 | 0.0 | 2.0 | 0.01 | 0.13 | 0.00 | 92 | 1010.6 |
| 20260507043017 | 61 | 131 | 0.0 | 2.0 | 0.01 | 0.13 | 0.00 | 92 | 1010.8 |
| 20260507042515 | 61 | 86 | 0.0 | 2.0 | 0.01 | 0.13 | 0.00 | 92 | 1011.1 |
| 20260507042014 | 61 | 321 | 0.0 | 5.0 | 0.01 | 0.13 | 0.00 | 92 | 1011.6 |
| 20260507041531 | 61 | 1 | 1.0 | 5.0 | 0.01 | 0.13 | 0.00 | 91 | 1011.9 |
| 20260507041014 | 61 | 216 | 1.0 | 4.0 | 0.02 | 0.13 | 0.00 | 91 | 1011.8 |
| 20260507040512 | 61 | 242 | 1.0 | 4.0 | 0.02 | 0.13 | 0.00 | 91 | 1012.4 |
| 20260507040011 | 61 | 229 | 1.0 | 6.0 | 0.02 | 0.13 | 0.00 | 91 | 1011.9 |
| 20260507035510 | 61 | 212 | 2.0 | 6.0 | 0.03 | 0.13 | 0.13 | 91 | 1012.0 |
| 20260507035012 | 61 | 283 | 2.0 | 6.0 | 0.03 | 0.13 | 0.13 | 91 | 1012.2 |
| 20260507034513 | 61 | 316 | 1.0 | 5.0 | 0.02 | 0.12 | 0.12 | 91 | 1012.0 |
| 20260507034010 | 61 | 267 | 1.0 | 5.0 | 0.02 | 0.12 | 0.12 | 91 | 1012.1 |
| 20260507033509 | 61 | 260 | 1.0 | 5.0 | 0.02 | 0.12 | 0.12 | 91 | 1012.1 |
| 20260507033012 | 61 | 224 | 1.0 | 4.0 | 0.02 | 0.12 | 0.12 | 90 | 1012.2 |
| 20260507032510 | 61 | 260 | 1.0 | 4.0 | 0.04 | 0.12 | 0.12 | 90 | 1012.1 |
| 20260507032010 | 62 | 199 | 1.0 | 6.0 | 0.06 | 0.12 | 0.12 | 90 | 1012.3 |
| 20260507031509 | 62 | 34 | 2.0 | 6.0 | 0.06 | 0.12 | 0.12 | 90 | 1012.4 |
| 20260507031009 | 62 | 260 | 1.0 | 4.0 | 0.05 | 0.11 | 0.11 | 90 | 1012.7 |
| 20260507030509 | 62 | 233 | 1.0 | 5.0 | 0.05 | 0.11 | 0.11 | 90 | 1012.4 |
| 20260507030009 | 62 | 137 | 1.0 | 6.0 | 0.05 | 0.11 | 0.11 | 89 | 1012.4 |
| 20260507025515 | 62 | 19 | 3.0 | 6.0 | 0.04 | 0.10 | 0.10 | 89 | 1012.6 |
| 20260507025008 | 62 | 330 | 1.0 | 7.0 | 0.04 | 0.10 | 0.10 | 88 | 1012.2 |
| 20260507024508 | 63 | 131 | 2.0 | 7.0 | 0.04 | 0.10 | 0.10 | 88 | 1012.1 |
| 20260507024014 | 63 | 253 | 3.0 | 10.0 | 0.04 | 0.10 | 0.10 | 88 | 1012.2 |